SCP
0 0 0 0 0 0 0 0 0 0 0 0 0 0 0 0 0 0 0 0 0 0 0 0 0 0 0 0 0 0 0 0 0 0 0 0 0 0 0 0 0 0 0 0
0 0 0 0 0 0 0 0 0 0 0 0 0 0 0 0 0 0 0 0 0 0 0 0 0 0 0 0 0 0 0 0 0 0 0 0 0 0 0 0 0 0 0 0
0 0 0 0 0 0 0 0 0 0 0 0 0 0 0 0 0 0 0 0 0 0 0 0 0 0 0 0 0 0 0 0 0 0 0 0 0 0 0 0 0 0 0 0
0 0 0 0 0 0 0 0 0 0 0 0 0 0 0 0 0 0 0 0 0 0 0 0 0 0 0 0 0 0 0 0 0 0 0 0 0 0 0 0 0 0 0 0
0 0 0 0 0 0 0 0 0 0 0 0 0 0 0 0 0 0 0 0 0 0 0 0 0 0 0 0 0 0 0 0 0 0 0 0 0 0 0 0 0 0 0 0
0 0 0 0 0 0 0 0 0 0 0 0 0 0 0 0 0 0 0 0 0 0 0 0 0 0 0 0 0 0 0 0 0 0 0 0 0 0 0 0 0 0 0 0
0 0 0 0 0 0 0 0 0 0 0 0 0 0 0 0 0 0 0 0 0 0 0 0 0 0 0 -0 -0 0 0 0 0 0 0 0 0 0 0 0 0 0 0 0
0 0 0 0 0 0 0 0 0 0 0 0 0 0 0 0 0 0 0 0 0 0 0 0 0 0 0 -0 0 0 0 0 0 0 0 0 0 0 0 0 0 0 0 0
0 0 0 0 0 0 0 0 0 0 0 0 0 0 0 0 0 0 0 0 0 0 0 0 0 0 0 0 0 0 0 0 0 0 0 0 0 0 0 0 0 0 0 0
0 0 0 0 0 0 0 0 0 0 0 0 0 0 0 0 0 0 0 0 0 0 0 0 0 0 0 0 0 0 -0 -0 0 0 0 0 0 0 0 0 0 0 0 0
0 0 0 0 0 0 0 0 0 0 0 0 0 0 0 0 0 0 0 0 0 0 -0 -0 0 -0 -0 -0 -0 -0 -0 -0 -0 -0 -0 -0 0 0 0 0 0 0 0 0
0 0 0 0 0 0 0 0 0 0 0 0 0 0 0 -0 0 -0 -0 -0 -0 -0 -0 -0 -0 -0 -0 -0 -0 0 -0 0 -0 -0 -0 -0 0 0 0 0 0 0 0 0
0 0 0 0 0 0 0 0 0 0 0 0 0 -0 -0 -0 -0 0 0 0 0 0 0 0 0 0 -0 0 -0 -0 -0 -0 -0 -0 0 0 0 0 0 0 0 0 0 0
0 0 0 0 0 0 0 0 0 -0 -0 0 0 -0 -0 0 0 0 0 0 0 0 0 -0 -0 -0 -0 -0 -0 -0 -0 -0 -0 0 0 0 0 0 0 0 0 0 0 0
0 0 0 0 0 0 0 0 0 -0 0 -0 -0 -0 -0 0 0 0 0 -0 -0 -0 -0 0 -0 -0 -0 -0 -0 -0 -0 -0 0 0 0 0 0 0 0 0 0 0 0 0
0 0 0 0 0 0 0 -0 -0 -0 -0 -0 -0 -0 -0 0 -0 -0 0 -0 0 0 0 0 -0 -0 -0 -0 -0 -0 -0 -0 0 0 0 0 0 0 0 0 0 0 0 0
0 0 0 0 0 0 -0 -0 -0 -0 0 0 0 -0 0 0 0 0 0 0 0 0 0 0 0 -0 -0 -0 -0 0 -0 0 0 0 0 0 0 0 0 0 0 0 0 0
0 0 0 0 -0 -0 0 -0 0 0 -0 -0 0 0 0 0 0 0 0 0 0 0 0 0 -0 -0 -0 -0 -0 -0 0 0 -0 -0 0 0 0 0 0 0 0 0 0 0
0 0 0 -0 -0 0 -0 -0 -0 -0 0 0 0 0 0 0 0 0 0 0 0 0 0 0 -0 -0 -0 -0 -0 0 -0 0 -0 -0 -0 0 0 0 0 0 0 0 0 0
0 0 -0 -0 0 0 -0 0 -0 0 0 0 0 0 0 0 0 0 0 0 0 0 0 0 0 0 0 -0 -0 0 0 0 0 -0 -0 -0 0 0 0 0 0 0 0 0
0 -0 0 0 0 0 -0 0 0 0 0 0 0 0 0 0 0 0 0 0 0 0 0 0 0 0 0 0 0 0 0 -0 -0 -0 -0 -0 -0 0 0 0 0 0 0 0
0 -0 0 0 0 0 -0 0 0 0 0 0 0 0 0 0 0 0 0 0 0 -0 0 0 0 -0 0 0 0 0 0 0 -0 -0 -0 0 0 0 0 0 0 0 0 0
0 -0 0 0 0 -0 -0 -0 0 0 0 0 0 0 0 0 0 0 0 -0 0 -0 -0 -0 -0 -0 -0 0 0 -0 0 0 0 0 -0 -0 0 0 0 0 0 0 0 0
-0 -0 0 -0 -0 -0 -0 -0 -0 -0 -0 0 0 0 0 0 0 0 0 0 -0 -0 -0 -0 -0 -0 -0 0 0 0 -0 0 0 0 0 -0 0 0 0 0 0 0 0 0
-0 -0 -0 -0 -0 -0 -0 -0 -0 -0 -0 -0 -0 -0 0 0 0 0 0 0 -0 -0 -0 -0 -0 -0 -0 -0 -0 -0 0 0 0 0 0 0 0 0 0 0 0 0 0 0
-0 -0 -0 -0 -0 -0 -0 -0 -0 -0 -0 0 0 0 0 0 0 0 0 0 -0 -0 -0 -0 -0 -0 -0 -0 0 0 -0 -0 -0 -0 -0 -0 0 0 0 0 0 0 0 0
0 -0 -0 -0 -0 -0 -0 -0 -0 -0 0 0 0 0 -0 -0 0 0 0 -0 0 -0 -0 -0 -0 -0 0 0 -0 -0 -0 -0 -0 -0 -0 -0 -0 -0 0 0 0 0 0 0
Wind_Speed_500mb
2 1 3 5 12 19 21 21 22 21 24 20 21 25 32 39 36 36 35 30 27 17 11 11 10 8 6 5 3 5 6 10 13 16 21 25 31 36 41 48 49 49 52 57
22 8 17 25 28 30 31 30 31 30 32 28 20 24 25 23 28 31 33 20 11 5 11 13 13 10 5 10 4 11 13 15 20 26 33 40 48 55 60 67 71 69 65 66
18 4 12 21 31 35 32 27 21 24 8 15 12 12 10 9 12 11 11 7 7 10 12 11 10 10 10 14 17 19 21 24 28 32 37 40 43 47 52 56 60 63 66 68
5 6 15 13 3 3 8 5 6 4 6 3 6 6 11 16 16 16 12 8 6 6 7 10 10 12 16 21 25 28 30 33 36 39 45 47 50 52 56 59 62 64 66 69
5 8 17 10 7 3 6 3 7 12 5 4 4 8 6 6 10 8 9 8 7 9 11 14 16 20 26 31 33 37 40 42 44 45 50 52 55 57 58 60 62 65 66 67
7 5 5 12 6 2 2 12 13 3 4 8 7 15 8 6 2 8 10 10 12 16 20 23 26 30 34 38 41 43 43 45 46 48 50 55 55 58 58 58 59 57 58 58
11 8 11 11 9 5 11 6 6 6 10 12 11 11 12 13 14 14 14 17 21 25 29 32 35 36 41 42 44 44 46 47 49 50 52 52 52 49 48 51 54 56 59 67
13 11 14 11 11 11 8 5 8 9 8 9 11 16 18 22 24 23 24 27 32 36 39 40 40 40 44 45 43 44 46 48 49 47 46 44 47 50 56 56 62 66 66 66
11 3 7 3 10 9 8 8 8 10 12 17 21 24 25 29 30 33 36 40 41 42 45 43 40 38 43 44 44 46 46 45 45 44 43 46 48 58 57 53 58 62 60 60
6 11 1 6 8 6 6 10 9 12 17 20 27 31 38 41 43 44 43 42 42 43 43 43 38 41 41 43 42 42 44 43 42 51 52 48 44 45 54 55 55 56 57 60
17 13 7 9 10 8 7 7 10 14 19 25 31 38 41 43 43 43 42 41 41 45 48 48 44 41 38 36 37 41 43 49 49 46 46 46 46 45 45 42 41 44 48 51
5 7 7 6 6 7 12 16 18 22 25 23 31 39 42 43 42 44 47 47 51 49 46 44 42 39 36 40 43 44 45 44 44 44 44 42 43 44 38 41 39 40 40 39
4 3 5 7 5 11 17 18 22 21 24 33 37 40 44 42 43 47 49 45 44 42 42 41 40 45 41 37 34 37 40 40 41 39 38 39 39 43 50 44 43 40 43 41
5 3 4 4 17 14 17 21 23 28 34 30 37 39 37 44 43 42 37 38 36 37 36 40 41 37 30 29 31 31 33 33 35 35 35 35 36 40 45 50 54 51 43 40
8 8 8 6 9 14 19 26 31 32 35 36 35 41 36 37 36 33 31 32 34 36 33 30 28 25 24 24 24 26 29 31 32 33 30 31 32 34 37 39 40 43 44 41
4 5 6 9 12 18 26 28 36 41 43 37 37 32 29 28 28 29 30 30 27 25 21 21 21 21 19 18 21 23 26 27 30 30 31 30 28 30 34 36 40 42 40 42
1 6 10 12 17 23 24 34 40 37 33 31 27 26 23 28 23 22 21 19 15 12 16 19 19 17 17 18 22 24 27 28 29 29 28 27 25 27 30 34 39 38 36 34
16 13 13 14 17 19 29 39 39 37 30 24 24 21 20 23 20 18 17 13 8 12 16 16 16 18 18 20 21 22 25 28 30 27 28 25 25 25 29 33 35 37 37 33
16 15 12 16 18 19 26 38 39 32 28 24 21 20 20 19 15 12 15 17 18 20 22 22 19 19 21 22 22 23 26 32 36 36 32 28 28 28 30 32 33 36 37 37
16 14 14 17 20 24 23 34 39 34 30 25 23 22 25 29 22 20 25 28 28 26 23 25 24 27 29 28 29 32 39 40 42 45 46 44 41 38 33 33 34 35 36 36
16 15 16 19 21 24 23 28 36 43 34 30 29 28 26 27 32 32 36 37 33 29 29 31 35 38 36 36 43 45 48 50 54 57 58 58 52 48 46 42 40 38 36 35
13 15 18 19 20 22 25 25 29 37 43 40 36 36 38 38 38 41 43 43 36 35 40 43 43 43 45 49 54 55 57 60 65 64 69 73 73 71 67 62 56 50 44 39
14 16 18 19 19 21 24 26 31 33 40 44 42 40 39 42 43 46 50 44 43 46 53 52 48 49 54 55 59 61 62 62 65 69 71 77 79 81 80 79 74 69 64 56
15 17 21 22 19 21 25 27 28 31 35 39 43 43 41 39 45 45 43 43 48 53 51 52 54 54 56 57 57 60 59 60 63 68 66 69 70 73 78 82 82 81 79 75
16 18 18 20 20 21 21 21 24 28 31 36 41 42 42 43 43 40 39 39 40 40 38 38 44 45 41 42 46 49 50 59 62 58 60 66 70 73 76 76 77 79 82 83
16 15 17 19 21 19 19 20 23 22 23 29 34 38 41 40 39 38 40 43 44 46 48 48 46 43 39 40 41 40 41 44 44 50 52 56 58 62 67 68 71 75 77 78
16 14 16 16 16 18 20 22 24 25 24 25 27 27 34 37 38 39 40 40 41 43 43 44 45 46 46 45 43 41 43 44 50 46 47 50 58 61 65 68 69 71 72 72
Wind_Direction_500mb
176 297 324 293 222 210 237 253 261 273 286 295 301 297 288 288 281 272 268 270 279 285 282 275 273 317 335 37 38 352 356 348 304 296 286 281 277 276 275 273 271 270 269 266
259 258 270 266 256 252 255 260 266 268 274 271 299 312 297 300 293 275 265 265 276 196 113 105 87 109 54 16 351 313 328 319 310 300 292 287 283 279 276 274 272 272 270 269
256 91 281 262 246 241 249 250 265 259 327 1 331 358 343 1 16 40 77 129 125 104 95 89 73 48 5 336 324 317 314 305 300 297 293 290 287 284 283 281 280 276 273 271
249 224 229 65 46 252 275 243 193 291 303 16 24 40 55 42 65 75 80 94 84 57 52 36 11 346 333 320 317 310 305 300 297 293 290 289 287 284 283 281 279 277 276 274
242 243 320 190 158 221 281 181 212 262 197 256 327 295 154 60 20 21 14 3 355 356 344 329 323 316 314 312 308 304 301 297 294 292 292 292 289 287 284 281 280 279 278 279
175 246 267 85 120 279 278 250 94 292 346 343 258 246 91 55 345 316 315 303 317 316 313 307 305 305 304 303 302 299 296 292 293 293 290 289 287 286 286 284 285 285 284 282
190 238 275 101 153 232 238 81 78 335 324 312 308 338 307 301 298 293 295 292 294 301 299 298 299 299 297 298 296 295 294 295 294 293 292 290 290 289 288 287 285 282 279 280
212 218 248 121 179 242 28 343 338 325 331 308 291 290 295 294 295 295 295 296 297 296 294 294 296 297 295 294 296 296 295 293 293 293 292 289 288 287 289 290 291 292 293 294
204 233 106 191 307 325 319 325 332 323 333 313 303 300 300 298 297 295 296 298 297 296 294 295 295 294 294 295 296 296 295 294 293 293 292 288 289 294 295 295 297 301 300 297
227 186 331 319 308 320 333 327 342 324 313 307 303 301 299 298 297 297 297 297 299 299 296 295 295 295 293 295 295 293 291 293 290 290 297 297 297 297 301 304 304 302 300 296
250 259 307 68 54 15 350 337 326 312 308 304 303 301 301 299 298 297 297 298 299 300 297 296 298 296 295 294 293 292 290 293 300 302 302 302 305 305 307 310 310 306 302 299
302 63 323 344 332 330 320 317 313 310 308 309 314 309 305 299 299 299 296 296 299 297 294 295 295 295 292 292 295 298 299 301 304 306 308 310 314 317 322 324 323 322 318 311
48 290 298 4 340 331 322 313 308 302 304 306 309 311 304 293 297 299 298 296 295 295 296 297 293 292 300 300 298 298 300 308 312 312 315 318 323 323 325 327 328 332 333 328
148 276 247 354 341 328 322 318 309 302 302 315 312 309 302 299 299 298 297 298 297 297 294 294 299 303 303 301 302 307 311 314 315 320 322 322 321 324 326 326 330 332 338 335
88 42 12 354 339 341 336 330 323 316 320 314 312 309 303 304 302 302 302 298 299 300 304 306 307 311 311 311 314 319 324 325 323 320 316 312 315 321 324 326 328 331 338 344
86 31 23 14 359 351 342 341 333 327 322 319 315 311 311 310 308 307 305 307 310 314 318 321 325 328 329 332 330 332 338 332 328 325 322 322 323 328 336 337 337 338 345 350
242 68 22 15 4 355 354 347 335 329 330 327 326 323 323 322 325 324 326 327 326 334 337 339 342 348 348 348 354 354 352 348 347 346 343 342 341 342 346 346 348 352 352 356
89 69 51 31 9 6 0 347 347 345 344 342 339 342 342 346 345 347 351 359 20 15 5 5 6 7 10 13 13 11 7 7 4 3 1 4 2 360 2 1 2 5 3 2
79 65 55 35 25 19 6 351 -0 360 2 1 6 12 13 15 15 26 33 44 47 40 34 33 31 32 33 32 32 34 33 29 26 26 24 21 19 14 15 14 13 13 13 12
76 65 56 40 37 25 18 360 15 19 18 26 30 37 39 41 52 63 59 52 47 43 41 48 52 55 54 56 55 52 52 47 43 39 38 34 30 26 25 24 23 18 18 20
81 65 57 54 44 35 30 14 18 29 31 40 45 45 51 53 56 66 66 61 58 61 64 69 68 67 66 66 65 60 60 57 51 48 44 40 36 32 31 29 26 23 21 20
86 66 64 59 49 39 36 32 27 27 40 48 54 52 58 63 66 62 64 65 65 72 74 74 74 75 75 71 70 66 63 61 58 54 53 50 47 45 42 38 33 29 26 22
94 73 69 64 56 52 47 43 43 41 40 44 51 57 51 55 59 62 65 68 74 76 74 71 71 73 72 71 69 66 62 60 59 56 55 53 50 49 48 45 42 39 35 30
98 78 70 71 71 64 56 50 51 52 54 55 56 58 64 61 64 69 74 77 78 74 76 80 78 71 69 66 65 64 60 59 59 54 52 52 49 48 48 46 44 43 41 38
108 91 85 72 68 63 61 55 55 53 53 55 60 62 62 61 64 62 67 68 70 74 74 75 73 59 51 47 48 47 47 49 48 51 48 48 46 43 44 44 42 40 41 40
120 105 93 84 77 72 64 57 57 56 52 51 52 56 60 62 64 65 65 67 67 68 65 61 60 61 53 52 44 44 42 43 38 36 39 40 40 40 41 40 38 37 38 38
135 117 104 93 84 81 77 70 64 60 57 55 54 50 54 58 62 64 65 67 66 65 63 61 60 60 59 57 56 49 48 48 48 40 35 37 41 43 42 41 39 37 37 36
Wind_Speed_850mb
2 1 3 5 12 19 21 21 22 21 24 20 21 25 32 39 36 36 35 30 27 17 11 11 10 8 6 5 3 5 6 10 13 16 21 25 31 36 41 48 49 49 52 57
22 8 17 25 28 30 31 30 31 30 32 28 20 24 25 23 28 31 33 20 11 5 11 13 13 10 5 10 4 11 13 15 20 26 33 40 48 55 60 67 71 69 65 66
18 4 12 21 31 35 32 27 21 24 8 15 12 12 10 9 12 11 11 7 7 10 12 11 10 10 10 14 17 19 21 24 28 32 37 40 43 47 52 56 60 63 66 68
5 6 15 13 3 3 8 5 6 4 6 3 6 6 11 16 16 16 12 8 6 6 7 10 10 12 16 21 25 28 30 33 36 39 45 47 50 52 56 59 62 64 66 69
5 8 17 10 7 3 6 3 7 12 5 4 4 8 6 6 10 8 9 8 7 9 11 14 16 20 26 31 33 37 40 42 44 45 50 52 55 57 58 60 62 65 66 67
7 5 5 12 6 2 2 12 13 3 4 8 7 15 8 6 2 8 10 10 12 16 20 23 26 30 34 38 41 43 43 45 46 48 50 55 55 58 58 58 59 57 58 58
11 8 11 11 9 5 11 6 6 6 10 12 11 11 12 13 14 14 14 17 21 25 29 32 35 36 41 42 44 44 46 47 49 50 52 52 52 49 48 51 54 56 59 67
13 11 14 11 11 11 8 5 8 9 8 9 11 16 18 22 24 23 24 27 32 36 39 40 40 40 44 45 43 44 46 48 49 47 46 44 47 50 56 56 62 66 66 66
11 3 7 3 10 9 8 8 8 10 12 17 21 24 25 29 30 33 36 40 41 42 45 43 40 38 43 44 44 46 46 45 45 44 43 46 48 58 57 53 58 62 60 60
6 11 1 6 8 6 6 10 9 12 17 20 27 31 38 41 43 44 43 42 42 43 43 43 38 41 41 43 42 42 44 43 42 51 52 48 44 45 54 55 55 56 57 60
17 13 7 9 10 8 7 7 10 14 19 25 31 38 41 43 43 43 42 41 41 45 48 48 44 41 38 36 37 41 43 49 49 46 46 46 46 45 45 42 41 44 48 51
5 7 7 6 6 7 12 16 18 22 25 23 31 39 42 43 42 44 47 47 51 49 46 44 42 39 36 40 43 44 45 44 44 44 44 42 43 44 38 41 39 40 40 39
4 3 5 7 5 11 17 18 22 21 24 33 37 40 44 42 43 47 49 45 44 42 42 41 40 45 41 37 34 37 40 40 41 39 38 39 39 43 50 44 43 40 43 41
5 3 4 4 17 14 17 21 23 28 34 30 37 39 37 44 43 42 37 38 36 37 36 40 41 37 30 29 31 31 33 33 35 35 35 35 36 40 45 50 54 51 43 40
8 8 8 6 9 14 19 26 31 32 35 36 35 41 36 37 36 33 31 32 34 36 33 30 28 25 24 24 24 26 29 31 32 33 30 31 32 34 37 39 40 43 44 41
4 5 6 9 12 18 26 28 36 41 43 37 37 32 29 28 28 29 30 30 27 25 21 21 21 21 19 18 21 23 26 27 30 30 31 30 28 30 34 36 40 42 40 42
1 6 10 12 17 23 24 34 40 37 33 31 27 26 23 28 23 22 21 19 15 12 16 19 19 17 17 18 22 24 27 28 29 29 28 27 25 27 30 34 39 38 36 34
16 13 13 14 17 19 29 39 39 37 30 24 24 21 20 23 20 18 17 13 8 12 16 16 16 18 18 20 21 22 25 28 30 27 28 25 25 25 29 33 35 37 37 33
16 15 12 16 18 19 26 38 39 32 28 24 21 20 20 19 15 12 15 17 18 20 22 22 19 19 21 22 22 23 26 32 36 36 32 28 28 28 30 32 33 36 37 37
16 14 14 17 20 24 23 34 39 34 30 25 23 22 25 29 22 20 25 28 28 26 23 25 24 27 29 28 29 32 39 40 42 45 46 44 41 38 33 33 34 35 36 36
16 15 16 19 21 24 23 28 36 43 34 30 29 28 26 27 32 32 36 37 33 29 29 31 35 38 36 36 43 45 48 50 54 57 58 58 52 48 46 42 40 38 36 35
13 15 18 19 20 22 25 25 29 37 43 40 36 36 38 38 38 41 43 43 36 35 40 43 43 43 45 49 54 55 57 60 65 64 69 73 73 71 67 62 56 50 44 39
14 16 18 19 19 21 24 26 31 33 40 44 42 40 39 42 43 46 50 44 43 46 53 52 48 49 54 55 59 61 62 62 65 69 71 77 79 81 80 79 74 69 64 56
15 17 21 22 19 21 25 27 28 31 35 39 43 43 41 39 45 45 43 43 48 53 51 52 54 54 56 57 57 60 59 60 63 68 66 69 70 73 78 82 82 81 79 75
16 18 18 20 20 21 21 21 24 28 31 36 41 42 42 43 43 40 39 39 40 40 38 38 44 45 41 42 46 49 50 59 62 58 60 66 70 73 76 76 77 79 82 83
16 15 17 19 21 19 19 20 23 22 23 29 34 38 41 40 39 38 40 43 44 46 48 48 46 43 39 40 41 40 41 44 44 50 52 56 58 62 67 68 71 75 77 78
16 14 16 16 16 18 20 22 24 25 24 25 27 27 34 37 38 39 40 40 41 43 43 44 45 46 46 45 43 41 43 44 50 46 47 50 58 61 65 68 69 71 72 72
Wind_Direction_850mb
176 297 324 293 222 210 237 253 261 273 286 295 301 297 288 288 281 272 268 270 279 285 282 275 273 317 335 37 38 352 356 348 304 296 286 281 277 276 275 273 271 270 269 266
259 258 270 266 256 252 255 260 266 268 274 271 299 312 297 300 293 275 265 265 276 196 113 105 87 109 54 16 351 313 328 319 310 300 292 287 283 279 276 274 272 272 270 269
256 91 281 262 246 241 249 250 265 259 327 1 331 358 343 1 16 40 77 129 125 104 95 89 73 48 5 336 324 317 314 305 300 297 293 290 287 284 283 281 280 276 273 271
249 224 229 65 46 252 275 243 193 291 303 16 24 40 55 42 65 75 80 94 84 57 52 36 11 346 333 320 317 310 305 300 297 293 290 289 287 284 283 281 279 277 276 274
242 243 320 190 158 221 281 181 212 262 197 256 327 295 154 60 20 21 14 3 355 356 344 329 323 316 314 312 308 304 301 297 294 292 292 292 289 287 284 281 280 279 278 279
175 246 267 85 120 279 278 250 94 292 346 343 258 246 91 55 345 316 315 303 317 316 313 307 305 305 304 303 302 299 296 292 293 293 290 289 287 286 286 284 285 285 284 282
190 238 275 101 153 232 238 81 78 335 324 312 308 338 307 301 298 293 295 292 294 301 299 298 299 299 297 298 296 295 294 295 294 293 292 290 290 289 288 287 285 282 279 280
212 218 248 121 179 242 28 343 338 325 331 308 291 290 295 294 295 295 295 296 297 296 294 294 296 297 295 294 296 296 295 293 293 293 292 289 288 287 289 290 291 292 293 294
204 233 106 191 307 325 319 325 332 323 333 313 303 300 300 298 297 295 296 298 297 296 294 295 295 294 294 295 296 296 295 294 293 293 292 288 289 294 295 295 297 301 300 297
227 186 331 319 308 320 333 327 342 324 313 307 303 301 299 298 297 297 297 297 299 299 296 295 295 295 293 295 295 293 291 293 290 290 297 297 297 297 301 304 304 302 300 296
250 259 307 68 54 15 350 337 326 312 308 304 303 301 301 299 298 297 297 298 299 300 297 296 298 296 295 294 293 292 290 293 300 302 302 302 305 305 307 310 310 306 302 299
302 63 323 344 332 330 320 317 313 310 308 309 314 309 305 299 299 299 296 296 299 297 294 295 295 295 292 292 295 298 299 301 304 306 308 310 314 317 322 324 323 322 318 311
48 290 298 4 340 331 322 313 308 302 304 306 309 311 304 293 297 299 298 296 295 295 296 297 293 292 300 300 298 298 300 308 312 312 315 318 323 323 325 327 328 332 333 328
148 276 247 354 341 328 322 318 309 302 302 315 312 309 302 299 299 298 297 298 297 297 294 294 299 303 303 301 302 307 311 314 315 320 322 322 321 324 326 326 330 332 338 335
88 42 12 354 339 341 336 330 323 316 320 314 312 309 303 304 302 302 302 298 299 300 304 306 307 311 311 311 314 319 324 325 323 320 316 312 315 321 324 326 328 331 338 344
86 31 23 14 359 351 342 341 333 327 322 319 315 311 311 310 308 307 305 307 310 314 318 321 325 328 329 332 330 332 338 332 328 325 322 322 323 328 336 337 337 338 345 350
242 68 22 15 4 355 354 347 335 329 330 327 326 323 323 322 325 324 326 327 326 334 337 339 342 348 348 348 354 354 352 348 347 346 343 342 341 342 346 346 348 352 352 356
89 69 51 31 9 6 0 347 347 345 344 342 339 342 342 346 345 347 351 359 20 15 5 5 6 7 10 13 13 11 7 7 4 3 1 4 2 360 2 1 2 5 3 2
79 65 55 35 25 19 6 351 -0 360 2 1 6 12 13 15 15 26 33 44 47 40 34 33 31 32 33 32 32 34 33 29 26 26 24 21 19 14 15 14 13 13 13 12
76 65 56 40 37 25 18 360 15 19 18 26 30 37 39 41 52 63 59 52 47 43 41 48 52 55 54 56 55 52 52 47 43 39 38 34 30 26 25 24 23 18 18 20
81 65 57 54 44 35 30 14 18 29 31 40 45 45 51 53 56 66 66 61 58 61 64 69 68 67 66 66 65 60 60 57 51 48 44 40 36 32 31 29 26 23 21 20
86 66 64 59 49 39 36 32 27 27 40 48 54 52 58 63 66 62 64 65 65 72 74 74 74 75 75 71 70 66 63 61 58 54 53 50 47 45 42 38 33 29 26 22
94 73 69 64 56 52 47 43 43 41 40 44 51 57 51 55 59 62 65 68 74 76 74 71 71 73 72 71 69 66 62 60 59 56 55 53 50 49 48 45 42 39 35 30
98 78 70 71 71 64 56 50 51 52 54 55 56 58 64 61 64 69 74 77 78 74 76 80 78 71 69 66 65 64 60 59 59 54 52 52 49 48 48 46 44 43 41 38
108 91 85 72 68 63 61 55 55 53 53 55 60 62 62 61 64 62 67 68 70 74 74 75 73 59 51 47 48 47 47 49 48 51 48 48 46 43 44 44 42 40 41 40
120 105 93 84 77 72 64 57 57 56 52 51 52 56 60 62 64 65 65 67 67 68 65 61 60 61 53 52 44 44 42 43 38 36 39 40 40 40 41 40 38 37 38 38
135 117 104 93 84 81 77 70 64 60 57 55 54 50 54 58 62 64 65 67 66 65 63 61 60 60 59 57 56 49 48 48 48 40 35 37 41 43 42 41 39 37 37 36